| time (UTC) | temp F | wind direction | speed MPH | gust MPH | rain 1hr in | rain 24hr in | rain mn in | humidity % | barometer mb |
| 20260506153036 | 47 | 355 | 3.0 | 9.0 | 0.00 | 0.00 | 0.00 | 58 | 1012.4 |
| 20260506151534 | 44 | 314 | 7.0 | 12.0 | 0.00 | 0.00 | 0.00 | 62 | 1012.4 |
| 20260506150032 | 45 | 290 | 5.0 | 12.0 | 0.00 | 0.00 | 0.00 | 60 | 1012.2 |
| 20260506144538 | 45 | 11 | 6.0 | 13.0 | 0.00 | 0.00 | 0.00 | 61 | 1012.1 |
| 20260506143031 | 45 | 342 | 2.0 | 12.0 | 0.00 | 0.00 | 0.00 | 62 | 1011.9 |
| 20260506141533 | 44 | 11 | 10.0 | 15.0 | 0.00 | 0.00 | 0.00 | 61 | 1011.7 |
| 20260506140023 | 44 | 323 | 7.0 | 14.0 | 0.00 | 0.00 | 0.00 | 64 | 1011.5 |
| 20260506134518 | 43 | 342 | 7.0 | 14.0 | 0.00 | 0.00 | 0.00 | 66 | 1011.5 |
| 20260506133017 | 43 | 345 | 3.0 | 12.0 | 0.00 | 0.00 | 0.00 | 64 | 1011.5 |
| 20260506131510 | 41 | 350 | 9.0 | 19.0 | 0.00 | 0.00 | 0.00 | 65 | 1011.2 |
| 20260506130010 | 41 | 340 | 5.0 | 14.0 | 0.00 | 0.00 | 0.00 | 66 | 1011.2 |
| 20260506124506 | 40 | 19 | 10.0 | 16.0 | 0.00 | 0.00 | 0.00 | 65 | 1011.0 |
| 20260506123005 | 39 | 31 | 9.0 | 20.0 | 0.00 | 0.00 | 0.00 | 67 | 1010.7 |
| 20260506121501 | 38 | 5 | 13.0 | 19.0 | 0.00 | 0.00 | 0.00 | 68 | 1010.8 |
| 20260506120103 | 38 | 320 | 8.0 | 16.0 | 0.00 | 0.00 | 0.00 | 70 | 1010.7 |
| 20260506114555 | 38 | 343 | 8.0 | 13.0 | 0.00 | 0.00 | 0.00 | 70 | 1010.5 |
| 20260506113052 | 38 | 339 | 5.0 | 9.0 | 0.00 | 0.00 | 0.00 | 71 | 1010.7 |
| 20260506111548 | 37 | 333 | 4.0 | 10.0 | 0.00 | 0.00 | 0.00 | 72 | 1010.3 |
| 20260506110046 | 36 | 9 | 6.0 | 13.0 | 0.00 | 0.00 | 0.00 | 72 | 1009.6 |
| 20260506104547 | 36 | 347 | 6.0 | 11.0 | 0.00 | 0.00 | 0.00 | 72 | 1009.2 |
| 20260506103041 | 36 | 349 | 5.0 | 13.0 | 0.00 | 0.00 | 0.00 | 72 | 1008.9 |
| 20260506101539 | 36 | 24 | 5.0 | 12.0 | 0.00 | 0.00 | 0.00 | 73 | 1008.7 |
| 20260506100038 | 36 | 10 | 8.0 | 13.0 | 0.00 | 0.00 | 0.00 | 73 | 1008.4 |
| 20260506094537 | 36 | 13 | 5.0 | 10.0 | 0.00 | 0.00 | 0.00 | 73 | 1008.6 |
| 20260506093040 | 36 | 19 | 7.0 | 12.0 | 0.00 | 0.00 | 0.00 | 73 | 1008.6 |
| 20260506091534 | 36 | 355 | 7.0 | 12.0 | 0.00 | 0.00 | 0.00 | 74 | 1008.5 |
| 20260506090031 | 36 | 5 | 5.0 | 13.0 | 0.00 | 0.00 | 0.00 | 74 | 1008.9 |
| 20260506084535 | 37 | 355 | 7.0 | 12.0 | 0.00 | 0.00 | 0.00 | 75 | 1008.6 |
| 20260506083025 | 37 | 307 | 5.0 | 13.0 | 0.00 | 0.00 | 0.00 | 75 | 1008.7 |
| 20260506081522 | 38 | 355 | 8.0 | 15.0 | 0.00 | 0.00 | 0.00 | 76 | 1008.4 |
| 20260506073012 | 40 | 350 | 4.0 | 15.0 | 0.00 | 0.00 | 0.00 | 70 | 1008.2 |
| 20260506071511 | 40 | 355 | 6.0 | 14.0 | 0.00 | 0.00 | 0.00 | 68 | 1007.9 |
| 20260506061507 | 41 | 5 | 6.0 | 13.0 | 0.00 | 0.00 | 0.00 | 65 | 1007.3 |
| 20260506044601 | 40 | 11 | 5.0 | 10.0 | 0.00 | 0.00 | 0.00 | 74 | 1007.6 |
| 20260506043101 | 40 | 5 | 6.0 | 11.0 | 0.00 | 0.00 | 0.00 | 73 | 1007.7 |
| 20260506041556 | 40 | 10 | 7.0 | 11.0 | 0.00 | 0.00 | 0.00 | 76 | 1007.5 |
| 20260506040050 | 40 | 20 | 7.0 | 13.0 | 0.00 | 0.00 | 0.00 | 80 | 1007.1 |
| 20260506034553 | 41 | 360 | 4.0 | 10.0 | 0.00 | 0.00 | 0.00 | 80 | 1007.2 |
| 20260506033042 | 44 | 331 | 6.0 | 13.0 | 0.00 | 0.00 | 0.00 | 72 | 1007.0 |
| 20260506031540 | 46 | 251 | 2.0 | 4.0 | 0.00 | 0.00 | 0.00 | 65 | 1006.6 |
| 20260506030039 | 46 | 238 | 1.0 | 3.0 | 0.00 | 0.00 | 0.00 | 64 | 1006.6 |
| 20260506024538 | 47 | 238 | 0.0 | 3.0 | 0.00 | 0.00 | 0.00 | 63 | 1006.9 |
| 20260506023036 | 48 | 242 | 2.0 | 4.0 | 0.00 | 0.00 | 0.00 | 61 | 1006.6 |
| 20260506021544 | 49 | 230 | 3.0 | 5.0 | 0.00 | 0.00 | 0.00 | 59 | 1006.5 |
| 20260506020034 | 50 | 222 | 3.0 | 7.0 | 0.00 | 0.00 | 0.00 | 58 | 1006.4 |
| 20260506014532 | 50 | 225 | 4.0 | 7.0 | 0.00 | 0.00 | 0.00 | 59 | 1006.2 |
| 20260506013033 | 51 | 221 | 2.0 | 5.0 | 0.00 | 0.00 | 0.00 | 60 | 1006.1 |
| 20260506011548 | 50 | 194 | 1.0 | 4.0 | 0.00 | 0.00 | 0.00 | 65 | 1006.0 |
| 20260506010029 | 49 | 141 | 0.0 | 2.0 | 0.00 | 0.00 | 0.00 | 77 | 1006.0 |
| 20260506004539 | 49 | 141 | 0.0 | 2.0 | 0.00 | 0.00 | 0.00 | 77 | 1005.9 |
| 20260506003030 | 49 | 141 | 0.0 | 3.0 | 0.00 | 0.00 | 0.00 | 77 | 1005.8 |
| 20260506001527 | 50 | 141 | 2.0 | 3.0 | 0.00 | 0.00 | 0.00 | 76 | 1005.7 |
| 20260506000026 | 50 | 38 | 0.0 | 0.0 | 0.00 | 0.00 | 0.00 | 74 | 1005.4 |
| 20260505234528 | 51 | 38 | 1.0 | 3.0 | 0.00 | 0.00 | 0.00 | 73 | 1005.2 |
| 20260505233031 | 51 | 38 | 0.0 | 3.0 | 0.00 | 0.00 | 0.00 | 72 | 1005.1 |
| 20260505231531 | 51 | 38 | 3.0 | 11.0 | 0.00 | 0.00 | 0.00 | 70 | 1005.1 |
| 20260505230026 | 56 | 355 | 1.0 | 11.0 | 0.00 | 0.00 | 0.00 | 47 | 1005.1 |
| 20260505224522 | 56 | 238 | 3.0 | 9.0 | 0.00 | 0.00 | 0.00 | 45 | 1005.0 |
| 20260505223020 | 56 | 217 | 2.0 | 7.0 | 0.00 | 0.00 | 0.00 | 64 | 1005.1 |
| 20260505221519 | 56 | 223 | 3.0 | 9.0 | 0.00 | 0.00 | 0.00 | 65 | 1005.1 |
| 20260505220040 | 56 | 230 | 6.0 | 10.0 | 0.00 | 0.00 | 0.00 | 64 | 1005.0 |
| 20260505214525 | 56 | 209 | 4.0 | 14.0 | 0.00 | 0.00 | 0.00 | 65 | 1005.0 |
| 20260505213021 | 56 | 242 | 4.0 | 14.0 | 0.00 | 0.00 | 0.00 | 66 | 1005.2 |
| 20260505211517 | 56 | 155 | 5.0 | 11.0 | 0.00 | 0.00 | 0.00 | 65 | 1005.1 |
| 20260505210017 | 56 | 227 | 4.0 | 9.0 | 0.00 | 0.00 | 0.00 | 67 | 1004.9 |
| 20260505204518 | 55 | 225 | 2.0 | 11.0 | 0.00 | 0.00 | 0.00 | 66 | 1005.2 |
| 20260505203014 | 56 | 192 | 6.0 | 11.0 | 0.00 | 0.00 | 0.00 | 64 | 1005.4 |
| 20260505201517 | 55 | 205 | 5.0 | 12.0 | 0.00 | 0.00 | 0.00 | 64 | 1005.2 |
| 20260505200013 | 55 | 227 | 6.0 | 10.0 | 0.00 | 0.00 | 0.00 | 66 | 1005.3 |
| 20260505194519 | 54 | 240 | 5.0 | 10.0 | 0.00 | 0.00 | 0.00 | 66 | 1005.4 |
| 20260505193014 | 54 | 169 | 4.0 | 11.0 | 0.00 | 0.00 | 0.00 | 66 | 1005.5 |
| 20260505191612 | 54 | 165 | 4.0 | 11.0 | 0.00 | 0.00 | 0.00 | 66 | 1005.5 |
| 20260505190010 | 54 | 171 | 3.0 | 15.0 | 0.00 | 0.00 | 0.00 | 67 | 1005.3 |
| 20260505184510 | 53 | 172 | 8.0 | 15.0 | 0.00 | 0.00 | 0.00 | 66 | 1005.2 |
| 20260505183007 | 53 | 209 | 4.0 | 12.0 | 0.00 | 0.00 | 0.00 | 66 | 1005.3 |
| 20260505181507 | 53 | 200 | 4.0 | 11.0 | 0.00 | 0.00 | 0.00 | 68 | 1005.1 |
| 20260505180006 | 52 | 203 | 4.0 | 10.0 | 0.00 | 0.00 | 0.00 | 66 | 1005.0 |
| 20260505174505 | 52 | 196 | 4.0 | 9.0 | 0.00 | 0.00 | 0.00 | 64 | 1005.1 |
| 20260505173005 | 52 | 162 | 6.0 | 10.0 | 0.00 | 0.00 | 0.00 | 66 | 1004.8 |
| 20260505171503 | 52 | 190 | 4.0 | 10.0 | 0.00 | 0.00 | 0.00 | 64 | 1005.0 |
| 20260505170003 | 52 | 207 | 2.0 | 8.0 | 0.00 | 0.00 | 0.00 | 65 | 1004.9 |
| 20260505164501 | 51 | 217 | 2.0 | 8.0 | 0.00 | 0.00 | 0.00 | 63 | 1004.9 |
| 20260505163000 | 51 | 176 | 1.0 | 7.0 | 0.00 | 0.00 | 0.00 | 65 | 1004.8 |
| 20260505161605 | 51 | 232 | 4.0 | 7.0 | 0.00 | 0.00 | 0.00 | 63 | 1005.0 |